Regional Weather Roundup
Issued by NWS

Home | Current Version | Previous Version | Graphics & Text | Print | Product List | Glossary On
Versions: 1 2 3 4 5 6 7 8 9 10 11 12 13 14 15 16 17 18 19 20 21 22 23 24 25 26 27 28 29 30 31 32 33 34 35 36 37 38 39 40 41 42 43 44 45 46 47 48 49 50
000
ASUS43 KDMX 220807
RWRIA

WEATHER ROUNDUP FOR IOWA
NATIONAL WEATHER SERVICE DES MOINES IA
300 AM CDT FRI MAY 22 2015

NOTE: "FAIR" INDICATES FEW OR NO CLOUDS BELOW 12,000 FEET WITH NO
SIGNIFICANT WEATHER AND/OR OBSTRUCTIONS TO VISIBILITY.

* - THESE STATIONS ARE NOT NWS STATIONS...THUS NOT UNDER NWS
QUALITY CONTROL.  THEY ALSO DO NOT REPORT WEATHER SUCH
AS PRECIPITATION OR FOG.

IAZ001>003-012>014-020>022-031>034-043>046-220900-
   NORTHWEST IOWA

CITY           SKY/WX    TMP DP  RH WIND       PRES   REMARKS
CARROLL *      CLEAR     54  41  62 W14       30.16S
CHEROKEE *     CLEAR     45  43  93 CALM      30.17R
DENISON *      CLEAR     50  43  76 SW3       30.18R
LE MARS *      CLEAR     46  41  81 CALM      30.19R
ORANGE CITY *  CLEAR     48  39  71 NW6       30.18R
SHELDON *      CLEAR     45  37  76 CALM      30.16S
SIOUX CITY     CLEAR     52  37  56 NW5       30.19R
SPENCER        CLEAR     43  38  82 W5        30.17R
STORM LAKE *   CLEAR     52  41  66 W10       30.18R
$$

IAZ055>058-069>071-079>083-090>094-220900-
   SOUTHWEST IOWA

CITY           SKY/WX    TMP DP  RH WIND       PRES   REMARKS
ATLANTIC *     CLEAR     48  43  81 CALM      30.20R
AUDUBON *      CLEAR     52  43  71 CALM      30.20R
CLARINDA *     CLEAR     50  45  81 CALM      30.21F
COUNCIL BLFS * CLEAR     54  43  66 SW6       30.20S
CRESTON *      CLEAR     50  43  76 W7        30.20S
HARLAN  *      CLEAR     50  43  76 CALM      30.23S
LAMONI         PTCLDY    54  43  66 W9        30.19R
RED OAK *      CLEAR     48  45  87 CALM      30.20S
SHENANDOAH *   CLEAR     50  45  81 CALM      30.21F
$$

IAZ047>049-059>061-072>074-084-220900-
   CENTRAL IOWA

CITY           SKY/WX    TMP DP  RH WIND       PRES   REMARKS
AMES           CLEAR     49  39  68 W7        30.14R
ANKENY *       CLEAR     52  43  71 W10       30.14S
CHARITON *       N/A     54  43  66 W9        30.17R
DES MOINES     CLEAR     54  42  64 W9        30.16R
GRINNELL*      CLEAR     50  39  66 W5        30.14R
KNOXVILLE *    CLEAR     52  43  71 W9        30.14R
MARSHALLTOWN   CLEAR     44  37  76 W5        30.13R
PELLA *        CLEAR     54  46  76 W8        30.15R
PERRY *          N/A     50  43  76 W10       30.16S
$$

IAZ004>006-015-016-023>025-035-036-220900-
   NORTH CENTRAL IOWA

CITY           SKY/WX    TMP DP  RH WIND       PRES   REMARKS
ALGONA *       CLEAR     48  36  61 NW6       30.15S
CLARION *      CLEAR     43  39  87 CALM      30.14S
ESTHERVILLE    CLEAR     46  32  58 NW8       30.15R
FORT DODGE *   CLEAR     43  37  81 W3        30.16S
MASON CITY     CLEAR     45  36  70 W7        30.14R
FOREST CITY *  CLEAR     39  36  87 CALM      30.14R
IOWA FALLS *     N/A     46  36  66 W6        30.15R
$$

IAZ007>011-017>019-026>030-037>042-050>054-066-220900-
   NORTHEAST IOWA

CITY           SKY/WX    TMP DP  RH WIND       PRES   REMARKS
CEDAR RAPIDS   CLEAR     45  38  76 W9        30.10R
CHARLES CITY * CLEAR     48  37  66 NW6       30.12S
CLINTON *        N/A     45  37  76 W7        30.10R
DECORAH *      CLEAR     50  37  62 CALM      30.10R
DUBUQUE        CLEAR     51  37  58 N8        30.09R
MONTICELLO *   CLEAR     43  43 100 CALM      30.09R
OELWEIN *      CLEAR     48  37  66 NW6       30.11S
WATERLOO       CLEAR     44  39  82 CALM      30.11R
$$

IAZ064-065-067-068-078-220900-
   EAST CENTRAL IOWA

CITY           SKY/WX    TMP DP  RH WIND       PRES   REMARKS
DAVENPORT      CLEAR     48  40  73 W7        30.09R
IOWA CITY      CLEAR     50  37  61 W3        30.12R
MT. PLEASANT * CLEAR     50  45  81 W7        30.13R
MUSCATINE *    CLEAR     52  43  71 W7        30.11R
QUAD CITIES    CLEAR     49  43  80 W3        30.09R
$$

IAZ062-063-075>077-085>089-095>099-220900-
   SOUTHEAST IOWA

CITY           SKY/WX    TMP DP  RH WIND       PRES   REMARKS
BURLINGTON     CLEAR     54  46  74 W7        30.12R
FAIRFIELD *    CLEAR     52  45  76 W8        30.13S
FORT MADISON * CLEAR     54  46  76 W9        30.14R
KEOKUK *       CLEAR     55  46  71 W13       30.13S
OSKALOOSA *      N/A     50  43  76 W9        30.14R
CENTERVILLE *  CLEAR     54  54 100 W9        30.18S
OTTUMWA        CLEAR     53  44  71 W10       30.14R
WASHINGTON *   CLEAR     52  45  76 W9        30.13S
$$

ABBREVIATIONS USED IN REMARKS
   TC - TEMPERATURES IN CELSIUS
  WCI - WIND CHILL INDEX
   HX - HEAT INDEX
  VSB - VISIBILITY
$$



USA.gov is the U.S. government's official web portal to all federal, state and local government web resources and services.